Location: Beadle
(51.4667°N, 109.0000°W)
Time: 10:01:41
(UTC+00:00)

deb Explorer IX - Pass Details

Date: 02 June 2022
Orbit: 535 x 1068 km, 38.8° (Epoch: 04 July)

Event Time Altitude Azimuth Distance (km) Brightness Sun altitude
Rises 20:40:28 0° 262° (W) 3,783 ? 56.4°
Reaches altitude 10° 20:44:47 10° 238° (WSW) 2,746 ? 55.9°
Maximum altitude 20:47:48 14° 211° (SSW) 2,422 ? 55.6°
Drops below altitude 10° 20:50:40 10° 183° (S) 2,589 ? 55.3°
Sets 20:54:32 0° 158° (SSE) 3,400 ? 54.9°
